| time (UTC) | temp F | wind direction | speed MPH | gust MPH | rain 1hr in | rain 24hr in | rain mn in | humidity % | barometer mb |
| 20260831210532 | 62 | 0 | 1.0 | 6.0 | 0.00 | 0.18 | 0.18 | 100 | 1019.1 |
| 20260831210045 | 62 | 265 | 0.0 | 5.0 | 0.00 | 0.18 | 0.18 | 100 | 1018.9 |
| 20260831205534 | 62 | 250 | 0.0 | 3.0 | 0.00 | 0.20 | 0.18 | 100 | 1018.8 |
| 20260831205032 | 62 | 0 | 0.0 | 3.0 | 0.00 | 0.20 | 0.18 | 100 | 1018.7 |
| 20260831204555 | 62 | 0 | 0.0 | 5.0 | 0.00 | 0.20 | 0.18 | 100 | 1018.8 |
| 20260831204033 | 62 | 0 | 1.0 | 5.0 | 0.00 | 0.20 | 0.18 | 100 | 1018.6 |
| 20260831203534 | 62 | 0 | 0.0 | 5.0 | 0.00 | 0.20 | 0.18 | 100 | 1018.6 |
| 20260831203059 | 62 | 237 | 1.0 | 5.0 | 0.00 | 0.20 | 0.18 | 100 | 1018.5 |
| 20260831202533 | 63 | 232 | 1.0 | 4.0 | 0.00 | 0.20 | 0.18 | 100 | 1018.5 |
| 20260831202036 | 63 | 264 | 1.0 | 4.0 | 0.00 | 0.20 | 0.18 | 100 | 1018.4 |
| 20260831201547 | 63 | 0 | 1.0 | 4.0 | 0.00 | 0.20 | 0.18 | 100 | 1018.4 |
| 20260831201033 | 63 | 240 | 1.0 | 4.0 | 0.00 | 0.20 | 0.18 | 100 | 1018.3 |
| 20260831200532 | 63 | 253 | 0.0 | 1.0 | 0.00 | 0.20 | 0.18 | 100 | 1018.2 |
| 20260831200049 | 64 | 0 | 0.0 | 0.0 | 0.00 | 0.20 | 0.18 | 100 | 1018.2 |
| 20260831195534 | 64 | 0 | 0.0 | 3.0 | 0.00 | 0.20 | 0.18 | 100 | 1018.1 |
| 20260831195035 | 64 | 0 | 0.0 | 4.0 | 0.00 | 0.20 | 0.18 | 100 | 1018.1 |
| 20260831194619 | 64 | 239 | 1.0 | 4.0 | 0.00 | 0.20 | 0.18 | 100 | 1018.0 |
| 20260831194035 | 64 | 0 | 0.0 | 4.0 | 0.00 | 0.20 | 0.18 | 100 | 1018.0 |
| 20260831193532 | 65 | 0 | 1.0 | 6.0 | 0.00 | 0.20 | 0.18 | 100 | 1017.9 |
| 20260831193052 | 65 | 263 | 0.0 | 6.0 | 0.00 | 0.20 | 0.18 | 100 | 1017.9 |
| 20260831192533 | 65 | 249 | 1.0 | 6.0 | 0.00 | 0.20 | 0.18 | 100 | 1017.8 |
| 20260831192034 | 65 | 263 | 0.0 | 7.0 | 0.00 | 0.20 | 0.18 | 100 | 1017.8 |
| 20260831191549 | 65 | 238 | 2.0 | 8.0 | 0.00 | 0.20 | 0.18 | 100 | 1017.7 |
| 20260831191034 | 65 | 267 | 3.0 | 8.0 | 0.00 | 0.20 | 0.18 | 100 | 1017.6 |
| 20260831190533 | 66 | 230 | 1.0 | 8.0 | 0.00 | 0.20 | 0.18 | 100 | 1017.6 |
| 20260831190116 | 66 | 277 | 2.0 | 8.0 | 0.00 | 0.20 | 0.18 | 100 | 1017.5 |
| 20260831185532 | 66 | 275 | 2.0 | 7.0 | 0.00 | 0.20 | 0.18 | 100 | 1017.4 |
| 20260831185034 | 66 | 213 | 2.0 | 10.0 | 0.00 | 0.20 | 0.18 | 100 | 1017.4 |
| 20260831184557 | 66 | 151 | 3.0 | 10.0 | 0.00 | 0.20 | 0.18 | 100 | 1017.4 |
| 20260831184035 | 66 | 227 | 2.0 | 7.0 | 0.00 | 0.20 | 0.18 | 100 | 1017.2 |
| 20260831183533 | 66 | 250 | 3.0 | 7.0 | 0.00 | 0.20 | 0.18 | 100 | 1017.3 |
| 20260831183044 | 67 | 229 | 2.0 | 7.0 | 0.00 | 0.20 | 0.18 | 100 | 1017.2 |
| 20260831182535 | 67 | 246 | 1.0 | 5.0 | 0.00 | 0.20 | 0.18 | 100 | 1017.1 |
| 20260831182034 | 67 | 242 | 1.0 | 5.0 | 0.00 | 0.20 | 0.18 | 100 | 1017.0 |
| 20260831181601 | 67 | 223 | 1.0 | 5.0 | 0.00 | 0.20 | 0.18 | 100 | 1017.1 |
| 20260831181032 | 67 | 242 | 2.0 | 9.0 | 0.00 | 0.20 | 0.18 | 100 | 1017.0 |
| 20260831180535 | 68 | 247 | 2.0 | 10.0 | 0.00 | 0.20 | 0.18 | 100 | 1016.9 |
| 20260831180054 | 68 | 200 | 3.0 | 11.0 | 0.00 | 0.20 | 0.18 | 100 | 1016.7 |
| 20260831175533 | 68 | 248 | 3.0 | 11.0 | 0.00 | 0.20 | 0.18 | 100 | 1016.7 |
| 20260831175033 | 68 | 234 | 5.0 | 11.0 | 0.00 | 0.20 | 0.18 | 100 | 1016.6 |
| 20260831174545 | 69 | 245 | 4.0 | 10.0 | 0.00 | 0.20 | 0.18 | 100 | 1016.5 |
| 20260831174035 | 69 | 241 | 4.0 | 12.0 | 0.00 | 0.20 | 0.18 | 100 | 1016.5 |
| 20260831173533 | 69 | 183 | 3.0 | 12.0 | 0.00 | 0.20 | 0.18 | 100 | 1016.5 |
| 20260831173055 | 69 | 279 | 4.0 | 14.0 | 0.00 | 0.20 | 0.18 | 100 | 1016.3 |
| 20260831172533 | 69 | 242 | 4.0 | 14.0 | 0.00 | 0.20 | 0.18 | 100 | 1016.3 |
| 20260831172033 | 69 | 198 | 3.0 | 11.0 | 0.00 | 0.20 | 0.18 | 100 | 1016.3 |
| 20260831171551 | 69 | 261 | 2.0 | 11.0 | 0.00 | 0.20 | 0.18 | 100 | 1016.2 |
| 20260831171033 | 70 | 221 | 4.0 | 11.0 | 0.00 | 0.20 | 0.18 | 100 | 1016.1 |
| 20260831170535 | 70 | 188 | 2.0 | 8.0 | 0.00 | 0.20 | 0.18 | 100 | 1016.0 |
| 20260831170059 | 70 | 250 | 2.0 | 8.0 | 0.00 | 0.20 | 0.18 | 100 | 1015.9 |
| 20260831165533 | 70 | 306 | 2.0 | 8.0 | 0.00 | 0.20 | 0.18 | 100 | 1015.8 |
| 20260831165032 | 70 | 249 | 2.0 | 10.0 | 0.00 | 0.20 | 0.18 | 100 | 1015.7 |
| 20260831164558 | 70 | 236 | 3.0 | 10.0 | 0.00 | 0.20 | 0.18 | 100 | 1015.7 |
| 20260831164033 | 70 | 236 | 4.0 | 9.0 | 0.00 | 0.20 | 0.18 | 100 | 1015.6 |
| 20260831163533 | 71 | 244 | 3.0 | 11.0 | 0.00 | 0.20 | 0.18 | 100 | 1015.5 |
| 20260831163052 | 72 | 238 | 4.0 | 14.0 | 0.00 | 0.20 | 0.18 | 100 | 1015.4 |
| 20260831162532 | 72 | 192 | 4.0 | 14.0 | 0.00 | 0.20 | 0.18 | 100 | 1015.5 |
| 20260831162033 | 72 | 294 | 5.0 | 11.0 | 0.00 | 0.20 | 0.18 | 100 | 1015.3 |
| 20260831161550 | 72 | 252 | 5.0 | 15.0 | 0.00 | 0.20 | 0.18 | 100 | 1015.3 |
| 20260831161034 | 71 | 227 | 6.0 | 15.0 | 0.00 | 0.20 | 0.18 | 100 | 1015.4 |
| 20260831160532 | 71 | 343 | 2.0 | 10.0 | 0.00 | 0.20 | 0.18 | 100 | 1015.2 |
| 20260831160056 | 71 | 130 | 3.0 | 10.0 | 0.00 | 0.20 | 0.18 | 100 | 1015.3 |
| 20260831155533 | 71 | 253 | 4.0 | 9.0 | 0.00 | 0.20 | 0.18 | 100 | 1015.2 |
| 20260831155033 | 72 | 183 | 2.0 | 12.0 | 0.00 | 0.20 | 0.18 | 100 | 1015.1 |
| 20260831154617 | 72 | 259 | 4.0 | 12.0 | 0.00 | 0.20 | 0.18 | 100 | 1015.2 |
| 20260831154032 | 72 | 217 | 4.0 | 11.0 | 0.00 | 0.20 | 0.18 | 100 | 1015.1 |
| 20260831153536 | 73 | 247 | 5.0 | 12.0 | 0.00 | 0.20 | 0.18 | 100 | 1015.2 |
| 20260831153118 | 73 | 224 | 4.0 | 12.0 | 0.00 | 0.20 | 0.18 | 100 | 1015.0 |
| 20260831152535 | 73 | 252 | 2.0 | 9.0 | 0.00 | 0.20 | 0.18 | 100 | 1015.0 |
| 20260831152033 | 72 | 248 | 4.0 | 13.0 | 0.00 | 0.20 | 0.18 | 100 | 1015.0 |
| 20260831151610 | 72 | 257 | 5.0 | 14.0 | 0.00 | 0.20 | 0.18 | 100 | 1015.0 |
| 20260831151033 | 72 | 237 | 5.0 | 14.0 | 0.00 | 0.20 | 0.18 | 100 | 1014.9 |
| 20260831150537 | 72 | 245 | 4.0 | 14.0 | 0.00 | 0.20 | 0.18 | 100 | 1014.9 |
| 20260831150100 | 73 | 184 | 4.0 | 13.0 | 0.00 | 0.20 | 0.18 | 100 | 1014.7 |
| 20260831145533 | 72 | 244 | 5.0 | 13.0 | 0.00 | 0.20 | 0.18 | 100 | 1014.7 |
| 20260831145032 | 72 | 242 | 4.0 | 12.0 | 0.00 | 0.20 | 0.18 | 100 | 1014.7 |
| 20260831144552 | 72 | 197 | 5.0 | 12.0 | 0.00 | 0.20 | 0.18 | 100 | 1014.7 |
| 20260831144033 | 72 | 246 | 5.0 | 12.0 | 0.00 | 0.20 | 0.18 | 100 | 1014.7 |
| 20260831143531 | 71 | 139 | 3.0 | 12.0 | 0.00 | 0.20 | 0.18 | 100 | 1014.6 |
| 20260831143051 | 71 | 229 | 2.0 | 8.0 | 0.00 | 0.20 | 0.18 | 100 | 1014.6 |
| 20260831142531 | 71 | 218 | 3.0 | 10.0 | 0.00 | 0.20 | 0.18 | 100 | 1014.5 |
| 20260831142032 | 71 | 225 | 2.0 | 12.0 | 0.00 | 0.20 | 0.18 | 100 | 1014.5 |
| 20260831141550 | 71 | 286 | 5.0 | 12.0 | 0.00 | 0.20 | 0.18 | 100 | 1014.5 |
| 20260831141032 | 71 | 144 | 3.0 | 10.0 | 0.00 | 0.20 | 0.18 | 100 | 1014.4 |
| 20260831140538 | 71 | 234 | 3.0 | 10.0 | 0.00 | 0.20 | 0.18 | 100 | 1014.4 |
| 20260831140055 | 71 | 306 | 2.0 | 12.0 | 0.00 | 0.20 | 0.18 | 100 | 1014.4 |
| 20260831135532 | 71 | 222 | 3.0 | 12.0 | 0.00 | 0.20 | 0.18 | 100 | 1014.3 |
| 20260831135037 | 70 | 140 | 2.0 | 10.0 | 0.00 | 0.20 | 0.18 | 100 | 1014.4 |
| 20260831134601 | 70 | 268 | 3.0 | 10.0 | 0.00 | 0.20 | 0.18 | 100 | 1014.5 |
| 20260831134031 | 69 | 16 | 1.0 | 9.0 | 0.00 | 0.20 | 0.18 | 100 | 1014.4 |
| 20260831133533 | 68 | 336 | 2.0 | 8.0 | 0.00 | 0.20 | 0.18 | 100 | 1014.4 |
| 20260831133102 | 68 | 250 | 3.0 | 10.0 | 0.00 | 0.20 | 0.18 | 100 | 1014.4 |
| 20260831132533 | 68 | 207 | 3.0 | 10.0 | 0.00 | 0.20 | 0.18 | 100 | 1014.3 |
| 20260831132034 | 69 | 198 | 2.0 | 10.0 | 0.00 | 0.20 | 0.18 | 100 | 1014.3 |
| 20260831131554 | 70 | 241 | 2.0 | 12.0 | 0.00 | 0.20 | 0.18 | 100 | 1014.1 |
| 20260831131035 | 70 | 249 | 3.0 | 12.0 | 0.00 | 0.20 | 0.18 | 100 | 1013.9 |
| 20260831130531 | 70 | 211 | 3.0 | 11.0 | 0.00 | 0.20 | 0.18 | 100 | 1013.9 |
| 20260831130058 | 69 | 244 | 4.0 | 11.0 | 0.00 | 0.20 | 0.18 | 100 | 1013.9 |
| 20260831125531 | 69 | 171 | 4.0 | 11.0 | 0.00 | 0.20 | 0.18 | 100 | 1013.8 |
| 20260831125032 | 69 | 246 | 3.0 | 12.0 | 0.00 | 0.20 | 0.18 | 100 | 1013.8 |
| 20260831124551 | 69 | 221 | 4.0 | 12.0 | 0.00 | 0.20 | 0.18 | 100 | 1013.9 |
| 20260831124031 | 69 | 210 | 3.0 | 10.0 | 0.00 | 0.20 | 0.18 | 100 | 1013.6 |
| 20260831123531 | 68 | 310 | 1.0 | 7.0 | 0.00 | 0.20 | 0.18 | 100 | 1013.5 |
| 20260831123048 | 67 | 0 | 0.0 | 4.0 | 0.00 | 0.20 | 0.18 | 100 | 1013.6 |
| 20260831122533 | 66 | 0 | 0.0 | 8.0 | 0.00 | 0.20 | 0.18 | 100 | 1013.6 |
| 20260831122033 | 66 | 238 | 0.0 | 9.0 | 0.00 | 0.20 | 0.18 | 100 | 1013.5 |
| 20260831121546 | 66 | 0 | 2.0 | 9.0 | 0.00 | 0.20 | 0.18 | 100 | 1013.4 |
| 20260831121032 | 66 | 253 | 0.0 | 5.0 | 0.00 | 0.20 | 0.18 | 100 | 1013.3 |
| 20260831120532 | 66 | 292 | 0.0 | 5.0 | 0.00 | 0.20 | 0.18 | 100 | 1013.2 |
| 20260831120051 | 65 | 0 | 0.0 | 5.0 | 0.00 | 0.20 | 0.18 | 100 | 1013.2 |
| 20260831115532 | 65 | 0 | 0.0 | 4.0 | 0.00 | 0.20 | 0.18 | 100 | 1013.0 |
| 20260831115031 | 65 | 0 | 0.0 | 3.0 | 0.00 | 0.20 | 0.18 | 100 | 1013.1 |
| 20260831114553 | 65 | 0 | 0.0 | 8.0 | 0.00 | 0.20 | 0.18 | 100 | 1013.0 |
| 20260831114031 | 65 | 0 | 0.0 | 8.0 | 0.00 | 0.20 | 0.18 | 100 | 1012.9 |
| 20260831113533 | 65 | 209 | 2.0 | 8.0 | 0.00 | 0.20 | 0.18 | 100 | 1012.8 |
| 20260831113048 | 65 | 0 | 0.0 | 8.0 | 0.00 | 0.20 | 0.18 | 100 | 1012.9 |
| 20260831112532 | 65 | 194 | 0.0 | 7.0 | 0.00 | 0.19 | 0.18 | 100 | 1012.8 |
| 20260831112032 | 65 | 0 | 0.0 | 8.0 | 0.00 | 0.19 | 0.18 | 100 | 1012.6 |
| 20260831111545 | 65 | 0 | 0.0 | 8.0 | 0.00 | 0.19 | 0.18 | 100 | 1012.5 |
| 20260831111031 | 65 | 0 | 1.0 | 7.0 | 0.00 | 0.19 | 0.18 | 100 | 1012.6 |
| 20260831110532 | 66 | 0 | 0.0 | 10.0 | 0.00 | 0.19 | 0.18 | 100 | 1012.4 |
| 20260831110057 | 65 | 0 | 1.0 | 10.0 | 0.00 | 0.19 | 0.18 | 100 | 1012.4 |
| 20260831105535 | 65 | 0 | 0.0 | 10.0 | 0.00 | 0.19 | 0.18 | 100 | 1012.2 |
| 20260831105031 | 64 | 0 | 2.0 | 10.0 | 0.00 | 0.19 | 0.18 | 100 | 1012.3 |
| 20260831104557 | 64 | 221 | 2.0 | 10.0 | 0.00 | 0.19 | 0.18 | 100 | 1012.3 |
| 20260831104030 | 64 | 252 | 1.0 | 9.0 | 0.00 | 0.19 | 0.18 | 100 | 1012.2 |
| 20260831103531 | 64 | 203 | 2.0 | 9.0 | 0.00 | 0.19 | 0.18 | 100 | 1012.2 |
| 20260831103048 | 64 | 0 | 1.0 | 9.0 | 0.00 | 0.19 | 0.18 | 100 | 1012.1 |
| 20260831102533 | 64 | 0 | 3.0 | 11.0 | 0.00 | 0.19 | 0.18 | 100 | 1012.1 |
| 20260831102032 | 64 | 347 | 3.0 | 11.0 | 0.00 | 0.19 | 0.18 | 100 | 1012.1 |
| 20260831101548 | 63 | 256 | 2.0 | 9.0 | 0.00 | 0.19 | 0.18 | 100 | 1012.0 |
| 20260831101032 | 63 | 233 | 4.0 | 9.0 | 0.00 | 0.19 | 0.18 | 100 | 1011.9 |
| 20260831100532 | 63 | 186 | 3.0 | 10.0 | 0.00 | 0.19 | 0.18 | 100 | 1011.8 |
| 20260831100053 | 62 | 221 | 3.0 | 11.0 | 0.00 | 0.19 | 0.18 | 100 | 1011.8 |
| 20260831095534 | 62 | 255 | 3.0 | 11.0 | 0.00 | 0.19 | 0.18 | 100 | 1011.7 |
| 20260831095031 | 62 | 262 | 4.0 | 10.0 | 0.00 | 0.19 | 0.18 | 100 | 1011.7 |
| 20260831094559 | 62 | 150 | 2.0 | 10.0 | 0.00 | 0.19 | 0.18 | 100 | 1011.7 |
| 20260831094035 | 62 | 0 | 2.0 | 9.0 | 0.00 | 0.19 | 0.18 | 100 | 1011.6 |
| 20260831093532 | 62 | 269 | 3.0 | 13.0 | 0.00 | 0.19 | 0.18 | 100 | 1011.5 |
| 20260831093133 | 62 | 250 | 3.0 | 13.0 | 0.00 | 0.19 | 0.18 | 100 | 1011.5 |
| 20260831092534 | 61 | 250 | 2.0 | 12.0 | 0.00 | 0.19 | 0.18 | 100 | 1011.3 |
| 20260831092034 | 61 | 273 | 3.0 | 12.0 | 0.00 | 0.19 | 0.18 | 100 | 1011.4 |
| 20260831091556 | 61 | 224 | 3.0 | 10.0 | 0.00 | 0.19 | 0.18 | 100 | 1011.2 |
| 20260831091032 | 61 | 198 | 2.0 | 9.0 | 0.00 | 0.19 | 0.18 | 100 | 1011.2 |
| 20260831090531 | 61 | 0 | 1.0 | 10.0 | 0.00 | 0.19 | 0.18 | 100 | 1011.2 |
| 20260831090048 | 61 | 188 | 1.0 | 14.0 | 0.00 | 0.19 | 0.18 | 100 | 1011.0 |
| 20260831085532 | 61 | 243 | 4.0 | 14.0 | 0.00 | 0.19 | 0.18 | 100 | 1011.0 |
| 20260831085035 | 61 | 257 | 3.0 | 10.0 | 0.00 | 0.19 | 0.18 | 100 | 1010.9 |
| 20260831084628 | 61 | 269 | 3.0 | 10.0 | 0.00 | 0.19 | 0.18 | 100 | 1010.8 |
| 20260831084032 | 61 | 282 | 2.0 | 9.0 | 0.00 | 0.19 | 0.18 | 100 | 1010.8 |
| 20260831083532 | 61 | 232 | 2.0 | 9.0 | 0.00 | 0.19 | 0.18 | 100 | 1010.7 |
| 20260831083056 | 60 | 209 | 3.0 | 11.0 | 0.00 | 0.19 | 0.18 | 100 | 1010.6 |
| 20260831082534 | 60 | 271 | 3.0 | 11.0 | 0.00 | 0.19 | 0.18 | 100 | 1010.4 |
| 20260831082034 | 60 | 223 | 3.0 | 11.0 | 0.00 | 0.19 | 0.18 | 100 | 1010.2 |
| 20260831081547 | 60 | 153 | 4.0 | 11.0 | 0.00 | 0.19 | 0.18 | 100 | 1010.1 |
| 20260831081034 | 59 | 157 | 3.0 | 11.0 | 0.00 | 0.19 | 0.18 | 100 | 1010.1 |
| 20260831080532 | 59 | 240 | 2.0 | 12.0 | 0.00 | 0.19 | 0.18 | 100 | 1010.0 |
| 20260831080109 | 59 | 260 | 4.0 | 12.0 | 0.00 | 0.19 | 0.18 | 100 | 1009.9 |
| 20260831075532 | 59 | 221 | 3.0 | 12.0 | 0.00 | 0.19 | 0.18 | 100 | 1009.8 |
| 20260831075033 | 59 | 182 | 4.0 | 12.0 | 0.00 | 0.19 | 0.18 | 100 | 1009.8 |
| 20260831074553 | 58 | 175 | 4.0 | 12.0 | 0.00 | 0.19 | 0.18 | 100 | 1009.7 |
| 20260831074033 | 58 | 232 | 3.0 | 10.0 | 0.00 | 0.19 | 0.18 | 100 | 1009.6 |
| 20260831073533 | 58 | 259 | 3.0 | 9.0 | 0.00 | 0.19 | 0.18 | 100 | 1009.7 |
| 20260831073048 | 58 | 229 | 3.0 | 11.0 | 0.00 | 0.19 | 0.18 | 100 | 1009.6 |
| 20260831072533 | 57 | 166 | 1.0 | 11.0 | 0.00 | 0.19 | 0.18 | 100 | 1009.6 |
| 20260831072034 | 57 | 211 | 3.0 | 10.0 | 0.00 | 0.19 | 0.18 | 100 | 1009.5 |
| 20260831071548 | 57 | 230 | 3.0 | 11.0 | 0.00 | 0.19 | 0.18 | 100 | 1009.5 |
| 20260831071033 | 57 | 187 | 3.0 | 11.0 | 0.00 | 0.19 | 0.18 | 100 | 1009.4 |
| 20260831070534 | 57 | 243 | 3.0 | 10.0 | 0.00 | 0.19 | 0.18 | 100 | 1009.3 |
| 20260831070057 | 57 | 269 | 4.0 | 10.0 | 0.00 | 0.19 | 0.18 | 100 | 1009.4 |
| 20260831065535 | 56 | 298 | 3.0 | 9.0 | 0.00 | 0.19 | 0.18 | 100 | 1009.2 |
| 20260831065037 | 56 | 244 | 3.0 | 10.0 | 0.00 | 0.19 | 0.18 | 100 | 1009.1 |
| 20260831064557 | 56 | 195 | 3.0 | 10.0 | 0.00 | 0.19 | 0.18 | 100 | 1009.0 |
| 20260831064030 | 56 | 265 | 2.0 | 10.0 | 0.00 | 0.19 | 0.18 | 100 | 1008.8 |
| 20260831063533 | 56 | 0 | 3.0 | 12.0 | 0.00 | 0.19 | 0.18 | 100 | 1008.9 |
| 20260831063103 | 56 | 243 | 4.0 | 12.0 | 0.00 | 0.19 | 0.18 | 100 | 1008.8 |
| 20260831062534 | 56 | 213 | 1.0 | 10.0 | 0.00 | 0.19 | 0.18 | 100 | 1008.7 |
| 20260831062033 | 56 | 268 | 3.0 | 10.0 | 0.00 | 0.19 | 0.18 | 100 | 1008.8 |
| 20260831061547 | 56 | 244 | 1.0 | 8.0 | 0.00 | 0.19 | 0.18 | 100 | 1008.6 |
| 20260831061033 | 55 | 232 | 2.0 | 8.0 | 0.00 | 0.19 | 0.18 | 100 | 1008.5 |
| 20260831060533 | 55 | 236 | 1.0 | 7.0 | 0.00 | 0.19 | 0.18 | 100 | 1008.5 |
| 20260831060050 | 55 | 250 | 2.0 | 7.0 | 0.00 | 0.19 | 0.18 | 100 | 1008.4 |
| 20260831055532 | 55 | 255 | 2.0 | 7.0 | 0.00 | 0.19 | 0.18 | 100 | 1008.3 |
| 20260831055034 | 55 | 217 | 1.0 | 6.0 | 0.00 | 0.19 | 0.18 | 100 | 1008.2 |
| 20260831054556 | 55 | 0 | 1.0 | 10.0 | 0.00 | 0.19 | 0.18 | 100 | 1008.1 |
| 20260831054033 | 55 | 0 | 2.0 | 10.0 | 0.00 | 0.19 | 0.18 | 100 | 1008.0 |
| 20260831053531 | 55 | 197 | 2.0 | 10.0 | 0.00 | 0.19 | 0.18 | 100 | 1008.0 |
| 20260831053100 | 55 | 249 | 2.0 | 8.0 | 0.00 | 0.19 | 0.18 | 100 | 1007.9 |
| 20260831052530 | 55 | 242 | 1.0 | 6.0 | 0.00 | 0.19 | 0.18 | 100 | 1007.9 |
| 20260831052032 | 55 | 262 | 1.0 | 8.0 | 0.00 | 0.19 | 0.18 | 100 | 1007.8 |
| 20260831051550 | 55 | 241 | 1.0 | 8.0 | 0.00 | 0.19 | 0.18 | 100 | 1007.8 |
| 20260831051032 | 55 | 236 | 1.0 | 7.0 | 0.00 | 0.19 | 0.18 | 100 | 1007.7 |
| 20260831050532 | 55 | 221 | 1.0 | 5.0 | 0.00 | 0.19 | 0.18 | 100 | 1007.6 |
| 20260831050052 | 55 | 211 | 0.0 | 6.0 | 0.00 | 0.19 | 0.18 | 100 | 1007.6 |
| 20260831045534 | 55 | 248 | 0.0 | 6.0 | 0.00 | 0.19 | 0.18 | 100 | 1007.4 |
| 20260831045032 | 55 | 280 | 0.0 | 8.0 | 0.00 | 0.19 | 0.18 | 100 | 1007.4 |
| 20260831044555 | 55 | 0 | 1.0 | 8.0 | 0.00 | 0.19 | 0.18 | 100 | 1007.3 |
| 20260831044031 | 55 | 215 | 2.0 | 8.0 | 0.00 | 0.19 | 0.18 | 100 | 1007.2 |
| 20260831043531 | 55 | 0 | 1.0 | 8.0 | 0.00 | 0.19 | 0.18 | 100 | 1007.2 |
| 20260831043052 | 55 | 244 | 1.0 | 7.0 | 0.00 | 0.19 | 0.18 | 100 | 1007.2 |
| 20260831042532 | 55 | 190 | 2.0 | 6.0 | 0.00 | 0.19 | 0.18 | 100 | 1007.2 |
| 20260831042033 | 55 | 257 | 1.0 | 7.0 | 0.00 | 0.19 | 0.18 | 100 | 1007.2 |
| 20260831041558 | 55 | 255 | 2.0 | 9.0 | 0.00 | 0.19 | 0.18 | 100 | 1007.1 |
| 20260831041032 | 55 | 246 | 2.0 | 9.0 | 0.00 | 0.19 | 0.18 | 100 | 1007.1 |
| 20260831040532 | 55 | 0 | 2.0 | 7.0 | 0.00 | 0.19 | 0.18 | 100 | 1007.1 |
| 20260831035531 | 55 | 279 | 3.0 | 11.0 | 0.00 | 0.19 | 0.18 | 100 | 1007.1 |
| 20260831035030 | 55 | 241 | 3.0 | 11.0 | 0.00 | 0.19 | 0.18 | 100 | 1007.1 |
| 20260831034611 | 55 | 274 | 2.0 | 10.0 | 0.00 | 0.19 | 0.18 | 100 | 1007.1 |
| 20260831034031 | 55 | 223 | 2.0 | 10.0 | 0.00 | 0.19 | 0.18 | 100 | 1007.1 |
| 20260831033531 | 55 | 226 | 1.0 | 9.0 | 0.00 | 0.19 | 0.18 | 100 | 1007.0 |
| 20260831033101 | 56 | 171 | 1.0 | 9.0 | 0.00 | 0.19 | 0.18 | 100 | 1007.0 |
| 20260831032535 | 56 | 202 | 1.0 | 14.0 | 0.00 | 0.19 | 0.18 | 100 | 1007.1 |
| 20260831032030 | 56 | 230 | 1.0 | 14.0 | 0.00 | 0.19 | 0.18 | 100 | 1007.0 |
| 20260831031550 | 56 | 240 | 2.0 | 7.0 | 0.00 | 0.19 | 0.18 | 100 | 1006.9 |
| 20260831031031 | 56 | 262 | 1.0 | 9.0 | 0.00 | 0.19 | 0.18 | 100 | 1006.9 |
| 20260831030532 | 56 | 0 | 1.0 | 10.0 | 0.00 | 0.19 | 0.18 | 100 | 1006.8 |
| 20260831030058 | 56 | 0 | 2.0 | 10.0 | 0.00 | 0.19 | 0.18 | 100 | 1006.9 |
| 20260831025532 | 56 | 257 | 1.0 | 9.0 | 0.01 | 0.19 | 0.18 | 100 | 1006.7 |
| 20260831025035 | 56 | 0 | 2.0 | 10.0 | 0.01 | 0.19 | 0.18 | 100 | 1006.7 |
| 20260831024601 | 57 | 221 | 1.0 | 10.0 | 0.01 | 0.19 | 0.18 | 100 | 1006.7 |
| 20260831024032 | 57 | 279 | 2.0 | 10.0 | 0.02 | 0.19 | 0.18 | 100 | 1006.6 |
| 20260831023532 | 57 | 200 | 1.0 | 10.0 | 0.02 | 0.19 | 0.18 | 100 | 1006.6 |
| 20260831023052 | 57 | 221 | 0.0 | 10.0 | 0.02 | 0.19 | 0.18 | 100 | 1006.7 |
| 20260831022531 | 57 | 274 | 2.0 | 9.0 | 0.02 | 0.19 | 0.18 | 100 | 1006.7 |
| 20260831022031 | 58 | 181 | 2.0 | 10.0 | 0.02 | 0.19 | 0.18 | 100 | 1006.8 |
| 20260831021551 | 58 | 212 | 3.0 | 11.0 | 0.02 | 0.19 | 0.18 | 100 | 1006.6 |
| 20260831021032 | 58 | 227 | 2.0 | 11.0 | 0.02 | 0.19 | 0.18 | 100 | 1006.5 |
| 20260831020533 | 59 | 257 | 3.0 | 11.0 | 0.01 | 0.18 | 0.17 | 100 | 1006.7 |
| 20260831020049 | 59 | 219 | 2.0 | 7.0 | 0.01 | 0.18 | 0.17 | 100 | 1006.7 |
| 20260831015535 | 59 | 0 | 1.0 | 7.0 | 0.01 | 0.18 | 0.16 | 100 | 1006.5 |
| 20260831015031 | 59 | 180 | 0.0 | 7.0 | 0.01 | 0.18 | 0.16 | 100 | 1006.5 |
| 20260831014611 | 59 | 207 | 1.0 | 7.0 | 0.04 | 0.17 | 0.15 | 100 | 1006.4 |
| 20260831014200 | 59 | 0 | 0.0 | 3.0 | 0.05 | 0.17 | 0.15 | 100 | 1006.4 |
| 20260831013532 | 59 | 0 | 1.0 | 6.0 | 0.05 | 0.17 | 0.15 | 100 | 1006.4 |
| 20260831013047 | 59 | 0 | 0.0 | 7.0 | 0.08 | 0.17 | 0.15 | 100 | 1006.4 |
| 20260831012532 | 59 | 207 | 1.0 | 7.0 | 0.10 | 0.17 | 0.15 | 100 | 1006.4 |
| 20260831012149 | 59 | 0 | 1.0 | 4.0 | 0.14 | 0.17 | 0.15 | 100 | 1006.5 |
| 20260831011559 | 58 | 209 | 1.0 | 10.0 | 0.14 | 0.17 | 0.15 | 100 | 1006.5 |
| 20260831011032 | 58 | 179 | 1.0 | 12.0 | 0.14 | 0.17 | 0.15 | 100 | 1006.3 |
| 20260831010534 | 58 | 253 | 3.0 | 12.0 | 0.14 | 0.17 | 0.15 | 100 | 1006.5 |
| 20260831010056 | 58 | 263 | 1.0 | 10.0 | 0.15 | 0.17 | 0.15 | 100 | 1006.4 |
| 20260831005532 | 58 | 244 | 3.0 | 10.0 | 0.14 | 0.16 | 0.14 | 100 | 1006.5 |
| 20260831005032 | 58 | 220 | 2.0 | 7.0 | 0.14 | 0.16 | 0.14 | 100 | 1006.6 |
| 20260831004555 | 58 | 204 | 1.0 | 8.0 | 0.11 | 0.12 | 0.11 | 100 | 1006.8 |
| 20260831004032 | 58 | 186 | 1.0 | 8.0 | 0.10 | 0.11 | 0.10 | 100 | 1007.0 |
| 20260831003534 | 58 | 0 | 2.0 | 11.0 | 0.10 | 0.11 | 0.10 | 100 | 1006.9 |
| 20260831003051 | 59 | 174 | 3.0 | 12.0 | 0.07 | 0.08 | 0.07 | 100 | 1006.8 |
| 20260831002531 | 60 | 265 | 3.0 | 12.0 | 0.05 | 0.07 | 0.05 | 100 | 1006.9 |
| 20260831002034 | 60 | 242 | 0.0 | 9.0 | 0.01 | 0.03 | 0.01 | 100 | 1006.9 |
| 20260831001544 | 60 | 0 | 1.0 | 9.0 | 0.01 | 0.03 | 0.01 | 100 | 1006.9 |
| 20260831001032 | 60 | 206 | 2.0 | 9.0 | 0.00 | 0.02 | 0.00 | 100 | 1007.1 |
| 20260831000532 | 60 | 166 | 0.0 | 7.0 | 0.00 | 0.02 | 0.00 | 100 | 1007.0 |
| 20260831000046 | 60 | 0 | 0.0 | 7.0 | 0.00 | 0.01 | 0.00 | 100 | 1007.1 |
| 20260830235533 | 60 | 0 | 1.0 | 9.0 | 0.00 | 0.01 | 0.00 | 100 | 1007.2 |
| 20260830235036 | 59 | 185 | 0.0 | 9.0 | 0.00 | 0.01 | 0.00 | 100 | 1007.0 |
| 20260830234551 | 59 | 0 | 0.0 | 5.0 | 0.00 | 0.01 | 0.00 | 100 | 1007.2 |
| 20260830234031 | 59 | 183 | 0.0 | 8.0 | 0.00 | 0.01 | 0.00 | 100 | 1007.1 |
| 20260830233531 | 59 | 0 | 0.0 | 8.0 | 0.00 | 0.01 | 0.00 | 100 | 1007.2 |
| 20260830233057 | 59 | 0 | 1.0 | 8.0 | 0.00 | 0.01 | 0.00 | 100 | 1007.3 |
| 20260830232533 | 59 | 0 | 0.0 | 2.0 | 0.00 | 0.01 | 0.00 | 100 | 1007.3 |
| 20260830232032 | 59 | 0 | 0.0 | 6.0 | 0.00 | 0.01 | 0.00 | 100 | 1007.4 |
| 20260830231547 | 59 | 0 | 0.0 | 6.0 | 0.00 | 0.01 | 0.00 | 100 | 1007.4 |
| 20260830231033 | 59 | 185 | 0.0 | 5.0 | 0.00 | 0.01 | 0.00 | 100 | 1007.5 |
| 20260830230533 | 59 | 211 | 0.0 | 5.0 | 0.00 | 0.01 | 0.00 | 100 | 1007.6 |
| 20260830230046 | 59 | 0 | 0.0 | 7.0 | 0.00 | 0.01 | 0.00 | 100 | 1007.6 |
| 20260830225532 | 59 | 61 | 1.0 | 7.0 | 0.00 | 0.01 | 0.01 | 100 | 1007.7 |
| 20260830225031 | 59 | 0 | 0.0 | 5.0 | 0.00 | 0.01 | 0.01 | 100 | 1007.7 |
| 20260830224546 | 59 | 236 | 0.0 | 6.0 | 0.00 | 0.01 | 0.01 | 100 | 1007.8 |
| 20260830224033 | 59 | 0 | 0.0 | 6.0 | 0.00 | 0.01 | 0.01 | 100 | 1007.8 |
| 20260830223628 | 59 | 265 | 0.0 | 7.0 | 0.00 | 0.01 | 0.01 | 100 | 1007.9 |
| 20260830223055 | 59 | 186 | 0.0 | 7.0 | 0.00 | 0.01 | 0.01 | 100 | 1007.9 |
| 20260830222533 | 59 | 229 | 0.0 | 8.0 | 0.00 | 0.01 | 0.01 | 100 | 1007.8 |
| 20260830222033 | 59 | 0 | 0.0 | 8.0 | 0.00 | 0.01 | 0.01 | 100 | 1007.9 |
| 20260830221554 | 59 | 242 | 1.0 | 6.0 | 0.00 | 0.01 | 0.01 | 100 | 1008.0 |
| 20260830221031 | 59 | 245 | 0.0 | 6.0 | 0.00 | 0.01 | 0.01 | 100 | 1008.1 |
| 20260830220534 | 59 | 257 | 0.0 | 6.0 | 0.00 | 0.01 | 0.01 | 100 | 1008.1 |
| 20260830220100 | 59 | 0 | 0.0 | 5.0 | 0.00 | 0.01 | 0.01 | 100 | 1008.0 |
| 20260830215532 | 60 | 217 | 0.0 | 10.0 | 0.00 | 0.01 | 0.01 | 100 | 1008.1 |
| 20260830215034 | 60 | 249 | 1.0 | 10.0 | 0.00 | 0.01 | 0.01 | 100 | 1008.1 |
| 20260830214554 | 60 | 251 | 1.0 | 11.0 | 0.00 | 0.01 | 0.01 | 100 | 1008.2 |
| 20260830214033 | 60 | 0 | 1.0 | 11.0 | 0.01 | 0.01 | 0.01 | 100 | 1008.2 |
| 20260830213534 | 60 | 258 | 2.0 | 10.0 | 0.01 | 0.01 | 0.01 | 100 | 1008.2 |
| 20260830213101 | 60 | 0 | 2.0 | 10.0 | 0.01 | 0.01 | 0.01 | 100 | 1008.1 |
| 20260830212532 | 60 | 250 | 3.0 | 11.0 | 0.01 | 0.01 | 0.01 | 100 | 1008.0 |
| 20260830212032 | 60 | 243 | 4.0 | 11.0 | 0.01 | 0.01 | 0.01 | 100 | 1008.0 |
| 20260830211556 | 61 | 219 | 0.0 | 8.0 | 0.01 | 0.01 | 0.01 | 100 | 1008.0 |
| 20260830211032 | 61 | 231 | 2.0 | 8.0 | 0.01 | 0.01 | 0.01 | 100 | 1007.9 |